Redding, CA

8:07 PM PST on November 13, 2019 (GMT -0800)
Redding Municipal

Weather History for KRDD - September, 2019

Change the Weather History Date:

Thursday, September 5, 2019

  Actual Average Record
Temperature  
Mean Temperature 83 °F -  
Max Temperature 99 °F 93 °F 114 °F (1988)
Min Temperature 66 °F 60 °F 47 °F (1947)
Degree Days  
Heating Degree Days 0    
Cooling Degree Days 18    
Growing Degree Days 32 (Base 50)    
Moisture  
Dew Point 48 °F    
Average Humidity 35    
Maximum Humidity 59    
Minimum Humidity 11    
Precipitation  
Precipitation 0.00 in 0.02 in 1.06 in (1912)
Month to date precipitation T 0.08  
Year to date precipitation 32.27 21.21  
Sea Level Pressure  
Sea Level Pressure 29.86 in    
Wind  
Wind Speed 4 mph (SSW)    
Max Wind Speed 28 mph    
Max Gust Speed 35 mph    
Visibility 10 miles    
Events      
T = Trace of Precipitation, MM = Missing Value Source: NWS Daily Summary

Daily Weather History Graph

Daily Weather History Graph

Search for Another Location

Airport or City:

Astronomy

Sep. 05, 2019 Rise Set
Actual Time 6:40 AM PDT 7:34 PM PDT
Civil Twilight 6:12 AM PDT 8:02 PM PDT
Nautical Twilight 5:39 AM PDT 8:35 PM PDT
Astronomical Twilight 5:04 AM PDT 9:09 PM PDT
Moon 1:54 PM PDT (9/5) 11:52 PM PDT (9/5)
Length of Visible Light 13h 50m
Length of Day
12h 54m
Waxing Crescent, 46% of the Moon is Illuminated
Sep 5
Waxing Crescent
Sep 5
First Quarter
Sep 13
Full
Sep 21
Last Quarter
Sep 28
New

Hourly Weather History & Observations

Time (PDT) Temp. Heat Index Dew Point Humidity Pressure Visibility Wind Dir Wind Speed Gust Speed Precip Events Conditions
12:53 AM 79.0 °F - 48.9 °F 35% 29.83 in 10.0 mi ENE 3.5 mph - N/A   Clear
1:53 AM 75.9 °F - 50.0 °F 40% 29.84 in 10.0 mi NW 5.8 mph - N/A   Clear
2:53 AM 73.9 °F - 51.1 °F 45% 29.83 in 10.0 mi NW 3.5 mph - N/A   Clear
3:53 AM 72.0 °F - 51.1 °F 48% 29.83 in 10.0 mi Calm Calm - N/A   Clear
4:53 AM 71.1 °F - 53.1 °F 53% 29.84 in 10.0 mi Calm Calm - N/A   Clear
5:53 AM 68.0 °F - 53.1 °F 59% 29.85 in 10.0 mi Calm Calm - N/A   Clear
6:53 AM 68.0 °F - 52.0 °F 56% 29.87 in 10.0 mi Calm Calm - N/A   Partly Cloudy
7:53 AM 72.0 °F - 53.1 °F 51% 29.88 in 10.0 mi Calm Calm - N/A   Partly Cloudy
8:53 AM 78.1 °F - 54.0 °F 43% 29.89 in 10.0 mi Calm Calm - N/A   Clear
9:53 AM 82.9 °F 81.8 °F 53.1 °F 36% 29.89 in 10.0 mi Calm Calm - N/A   Clear
10:53 AM 86.0 °F 84.0 °F 53.1 °F 32% 29.88 in 10.0 mi South 4.6 mph - N/A   Clear
11:53 AM 90.0 °F - 48.9 °F 24% 29.88 in 10.0 mi South 5.8 mph - N/A   Clear
12:53 PM 93.9 °F - 48.0 °F 21% 29.87 in 10.0 mi SSW 5.8 mph - N/A   Clear
1:53 PM 97.0 °F - 48.9 °F 19% 29.86 in 10.0 mi SSE 9.2 mph 20.7 mph N/A   Clear
2:53 PM 98.1 °F - 45.0 °F 16% 29.85 in 10.0 mi SSW 13.8 mph - N/A   Clear
4:53 PM 97.0 °F - 41.0 °F 14% 29.81 in 10.0 mi South 26.5 mph 34.5 mph N/A   Clear
5:53 PM 95.0 °F - 33.1 °F 11% 29.83 in 10.0 mi SSW 15.0 mph - N/A   Clear
6:53 PM 90.0 °F - 37.9 °F 16% 29.84 in 10.0 mi WSW 8.1 mph - N/A   Clear
7:53 PM 87.1 °F - 44.1 °F 22% 29.86 in 10.0 mi WSW 6.9 mph - N/A   Clear
8:53 PM 87.1 °F - 41.0 °F 20% 29.87 in 10.0 mi SW 8.1 mph - N/A   Clear
9:53 PM 80.1 °F - 39.9 °F 24% 29.89 in 10.0 mi Calm Calm - N/A   Clear
10:53 PM 75.9 °F - 43.0 °F 31% 29.91 in 10.0 mi North 3.5 mph - N/A   Clear
11:53 PM 72.0 °F - 44.1 °F 37% 29.92 in 10.0 mi NE 5.8 mph - N/A   Clear